Location: Devore Heights
(34.2372°N, 117.4156°W)
Time: 19:36:42
(UTC+00:00)

Explorer 7 - Pass Details

Date: 21 September 2024
Orbit: 459 x 606 km, 50.3° (Epoch: 13 October)

Event Time Altitude Azimuth Distance (km) Brightness Sun altitude
Exits shadow 12:11:08 - 335° (NNW) 2,071 9.6 -18.5°
Reaches altitude 10° 12:13:12 10° 359° (N) 1,611 9.3 -18.1°
Maximum altitude 12:14:31 12° 21° (NNE) 1,511 9.5 -17.8°
Drops below altitude 10° 12:15:49 10° 42° (NE) 1,603 10.0 -17.6°
Sets 12:19:15 0° 77° (ENE) 2,474 12.0 -16.9°
